Weather History for Dayton Wright, OH

Change the Weather History Date:

Thursday, January 3, 2013

  Actual Average (KFFO) Record (KFFO)
Temperature  
Mean Temperature 20 °F -  
Max Temperature 30 °F 37 °F 62 °F (2004)
Min Temperature 10 °F 22 °F -1 °F (2014)
Degree Days  
Heating Degree Days 45    
Moisture  
Dew Point 14 °F    
Average Humidity 69    
Maximum Humidity 81    
Minimum Humidity 49    
Precipitation  
Precipitation 0.00 in - - ()
Sea Level Pressure  
Sea Level Pressure 30.26 in    
Wind  
Wind Speed 5 mph (WSW)    
Max Wind Speed 14 mph    
Max Gust Speed 20 mph    
Visibility 10 miles    
Events      
Averages and records for this station are not official NWS values.
T = Trace of Precipitation, MM = Missing Value Source: NWS Daily Summary

Daily Weather History Graph

Daily Weather History Graph

Search for Another Location

Airport:

Trip Planner

Search our weather history database for the weather conditions in past years. The results will help you decide how hot, cold, wet, or windy it might be!

Date:

Astronomy

Jan. 03, 2013 Rise Set
Actual Time 7:57 AM EST 5:25 PM EST
Civil Twilight 7:27 AM EST 5:55 PM EST
Nautical Twilight 6:54 AM EST 6:29 PM EST
Astronomical Twilight 6:21 AM EST 7:02 PM EST
Moon 11:58 PM EST (1/3) 11:10 AM EST (1/3)
Length of Visible Light 10h 28m
Length of Day
9h 27m
Waning Gibbous, 65% of the Moon is Illuminated
Jan 3
Waning Gibbous
Jan 4
Last Quarter
Jan 11
New
Jan 18
First Quarter
Jan 26
Full

Hourly Weather History & Observations

Time (EST) Temp. Windchill Dew Point Humidity Pressure Visibility Wind Dir Wind Speed Gust Speed Precip Events Conditions
12:53 AM 15.1 °F - 10.0 °F 80% 30.24 in 8.0 mi Calm Calm - N/A   Clear
1:53 AM 15.1 °F - 9.0 °F 77% 30.24 in 8.0 mi Calm Calm - N/A   Clear
2:53 AM 12.9 °F 5.2 °F 8.1 °F 81% 30.24 in 8.0 mi South 4.6 mph - N/A   Clear
3:53 AM 16.0 °F - 7.0 °F 68% 30.22 in 10.0 mi Calm Calm - N/A   Clear
4:53 AM 14.0 °F 8.2 °F 7.0 °F 74% 30.23 in 10.0 mi SW 3.5 mph - N/A   Clear
5:53 AM 10.9 °F 0.2 °F 5.0 °F 77% 30.24 in 10.0 mi South 6.9 mph - N/A   Clear
6:53 AM 14.0 °F 6.5 °F 8.1 °F 77% 30.25 in 10.0 mi SSW 4.6 mph - N/A   Clear
7:53 AM 12.0 °F 4.1 °F 7.0 °F 80% 30.26 in 9.0 mi South 4.6 mph - N/A   Clear
8:53 AM 16.0 °F 8.8 °F 9.0 °F 74% 30.26 in 10.0 mi SSW 4.6 mph - N/A   Clear
9:53 AM 19.9 °F 10.1 °F 10.9 °F 68% 30.27 in 10.0 mi SW 8.1 mph - N/A   Clear
10:53 AM 25.0 °F 14.8 °F 8.1 °F 49% 30.26 in 10.0 mi SW 10.4 mph - N/A   Clear
11:53 AM 27.0 °F 18.0 °F 10.9 °F 51% 30.25 in 10.0 mi SW 9.2 mph - N/A   Clear
12:53 PM 28.9 °F 19.2 °F 12.9 °F 51% 30.23 in 10.0 mi WSW 11.5 mph - N/A   Clear
1:53 PM 30.9 °F 22.8 °F 18.0 °F 59% 30.22 in 10.0 mi West 9.2 mph - N/A   Clear
2:53 PM 30.9 °F 20.7 °F 19.9 °F 64% 30.25 in 10.0 mi WNW 13.8 mph 18.4 mph N/A   Scattered Clouds
3:53 PM 30.0 °F 23.2 °F 21.0 °F 69% 30.26 in 10.0 mi West 6.9 mph - N/A   Scattered Clouds
4:53 PM 28.9 °F 23.9 °F 19.9 °F 69% 30.27 in 10.0 mi WSW 4.6 mph - N/A   Mostly Cloudy
5:53 PM 30.0 °F 22.4 °F 19.9 °F 66% 30.29 in 10.0 mi WSW 8.1 mph - N/A   Overcast
6:53 PM 30.0 °F 22.4 °F 21.0 °F 69% 30.30 in 10.0 mi WSW 8.1 mph - N/A   Overcast
7:53 PM 30.0 °F 23.2 °F 21.0 °F 69% 30.31 in 10.0 mi WSW 6.9 mph - N/A   Overcast
8:53 PM 30.0 °F 20.0 °F 21.0 °F 69% 30.31 in 10.0 mi West 12.7 mph 19.6 mph N/A   Overcast
9:00 PM 30.2 °F 23.4 °F 21.2 °F 69% 30.27 in 10.0 mi West 6.9 mph 17.3 mph N/A   Overcast
9:53 PM 30.0 °F 21.7 °F 21.0 °F 69% 30.31 in 10.0 mi West 9.2 mph - N/A   Overcast
10:53 PM 30.0 °F 23.2 °F 21.9 °F 72% 30.32 in 10.0 mi West 6.9 mph - N/A   Overcast
11:53 PM 30.0 °F 23.2 °F 21.0 °F 69% 30.31 in 10.0 mi West 6.9 mph - N/A   Overcast